[[{"header":{"parameterUnit":"m.s-1","parameterCategory":1,"la1":30.2991,"la2":30.254,"lo1":-89.0895,"lo2":-89.0444,"dy":0.0017,"dx":0.0017,"nx":28,"ny":28,"refTime":"2024-09-03T21:00:00:Z","depth":0,"parameterNumber":2,"parameterNumberName":"U-component_of_WINDS"},"data":[0,0,0,0,0,0,0,0,0,0,0,0,0,0,0,0,0,0,0,0,0,0,0,0,0,0,0,0,0,0,0,0,0,0,0,0,0,0,0,0,0,0,0,0,0,0,0,0,0,0,0,0,0,0,0,0,0,0,-8.5393,-8.5393,0,-8.5378,-8.5378,-8.5377,-8.5129,-8.5123,-8.5116,-8.511,-8.5097,-8.5103,-8.5108,0,0,0,0,0,0,0,0,0,0,0,0,0,-8.5208,-8.5213,-8.5393,-8.5393,-8.5392,-8.5378,-8.5378,-8.5377,-8.513,-8.5122,-8.5115,-8.5107,-8.5096,-8.5102,-8.5109,0,0,0,0,0,0,0,0,0,0,0,0,0,-8.525,-8.5214,-8.5393,-8.5267,-8.5256,-8.5378,-8.5378,-8.5377,-8.5132,-8.5122,-8.5113,-8.5104,-8.5093,-8.5101,-8.511,-8.5352,0,0,-8.5135,-8.5139,0,0,0,0,0,0,0,0,-8.5248,-8.5257,-8.5286,-8.5276,-8.5263,-8.5245,-8.5307,-8.5369,-8.5134,-8.5179,-8.511,-8.5099,-8.5154,-8.5157,-8.5175,-8.5351,-8.5351,-8.5136,-8.5141,-8.5145,-8.5147,0,0,0,0,0,0,0,-8.5246,-8.5257,-8.5387,-8.5286,-8.5273,-8.5212,-8.5207,-8.5318,-8.522,-8.5174,-8.5156,-8.5158,-8.5146,-8.5168,-8.5173,-8.535,-8.5136,-8.5143,-8.5148,-8.5152,-8.5722,-8.5732,0,0,0,0,0,0,-8.526,-8.5256,-8.5387,-8.5386,-8.5232,-8.5223,-8.5218,-8.5261,-8.5218,-8.5203,-8.5166,-8.5146,-8.5158,-8.5164,-8.5172,-8.5451,-8.5145,-8.5152,-8.5157,-8.5712,-8.5725,-8.5736,0,0,0,0,0,0,-8.5257,-8.5274,-8.5388,-8.5316,-8.5326,-8.5236,-8.5287,-8.5266,-8.5286,-8.5212,-8.5193,-8.5206,-8.5151,-8.516,-8.5308,-8.5447,-8.5156,-8.5164,-8.57,-8.5716,-8.573,-8.6013,0,0,0,0,0,0,-8.5253,-8.5274,-8.5365,-8.532,-8.5331,-8.5525,-8.5295,-8.5272,-8.5301,-8.5275,-8.5244,-8.523,-8.5144,-8.5297,-8.5317,-8.5453,-8.517,-8.5687,-8.5707,-8.5725,-8.5991,-8.6036,-8.6075,0,0,0,0,0,-8.5247,-8.5446,-8.5371,-8.5388,-8.5442,-8.5534,-8.554,-8.5436,-8.5314,-8.5404,-8.5356,-8.5231,-8.5429,-8.5314,-8.5334,-8.5476,-8.5678,-8.5702,-8.5724,-8.5972,-8.6027,-8.6074,0,0,0,0,0,0,-8.5511,-8.5438,-8.5354,-8.5545,-8.5547,-8.5491,-8.5603,-8.5498,-8.5536,-8.551,-8.5381,-8.5376,-8.5545,-8.5524,-8.5398,-8.5707,-8.5532,-8.556,-8.5714,-8.5765,-8.5807,-8.5808,-8.5177,0,0,0,0,0,-8.5592,-8.5672,-8.5603,-8.5778,-8.5784,-8.5694,-8.573,-8.565,-8.5647,-8.5647,-8.561,-8.5613,-8.5675,-8.5719,-8.5773,-8.5987,-8.5976,-8.6094,-8.6136,-8.6171,-8.6196,-8.6307,-8.6358,-8.5811,-8.581,-8.581,0,0,-8.5759,-8.5729,-8.5787,-8.5831,-8.5823,-8.5909,-8.5696,-8.5796,-8.5858,-8.5662,-8.5799,-8.5773,-8.5767,-8.595,-8.6028,-8.5938,-8.6345,-8.62,-8.6228,-8.6235,-8.6336,-8.6388,-8.6434,-8.5826,-8.5823,-8.5821,0,0,-8.6107,-8.6093,-8.6236,-8.6233,-8.6223,-8.6162,-8.6197,-8.6157,-8.6131,-8.6267,-8.6121,-8.6194,-8.6304,-8.6306,-8.6322,-8.667,-8.6556,-8.6691,-8.691,-8.702,-8.7063,-8.7101,-8.7224,-8.727,-8.6717,-8.6718,-8.6718,0,-8.6316,-8.6439,-8.6323,-8.6432,-8.6455,-8.6281,-8.6425,-8.6428,-8.6438,-8.6458,-8.6357,-8.6491,-8.6476,-8.6655,-8.674,-8.6759,-8.6794,-8.6694,-8.7066,-8.7103,-8.7136,-8.7252,-8.7299,-8.6734,-8.6732,-8.6731,-8.6729,0,-8.6696,-8.6783,-8.69,-8.6912,-8.6948,-8.7075,-8.6979,-8.703,-8.6947,-8.6897,-8.7036,-8.7011,-8.7056,-8.7093,-8.7014,-8.7262,-8.7206,-8.7089,-8.6909,-8.7207,-8.7314,-8.7357,-8.6758,-8.6752,-8.6747,-8.6743,0,0,-8.721,-8.7156,-8.7201,-8.7204,-8.7181,-8.7246,-8.7365,-8.7407,-8.7453,-8.7466,-8.7561,-8.7659,-8.7549,-8.7567,-8.7486,-8.7583,-8.7859,-8.7452,-8.745,-8.7528,-8.813,-8.8219,-8.8273,-8.7784,-8.7792,-8.7798,-8.813,0,-8.7545,-8.7743,-8.7642,-8.7853,-8.7932,-8.7767,-8.787,-8.7868,-8.7824,-8.7885,-8.7836,-8.7907,-8.7757,-8.7766,-8.7855,-8.7807,-8.7978,-8.7782,-8.7872,-8.7876,-8.7877,-8.8328,-8.8422,-8.8737,-8.8172,-8.8179,-8.8184,0,-8.7962,-8.7991,-8.821,-8.8171,-8.82,-8.8295,-8.8325,-8.8385,-8.8379,-8.834,-8.836,-8.8256,-8.837,-8.8193,-8.8348,-8.8216,-8.8247,-8.823,-8.8239,-8.8243,-8.8048,-8.8344,-8.8835,-8.8882,-8.8249,-8.8244,-8.8239,0,-8.8314,-8.8408,-8.855,-8.8558,-8.8517,-8.8587,-8.8573,-8.8556,-8.8588,-8.8616,-8.8635,-8.8676,-8.8699,-8.8733,-8.8643,-8.8523,-8.881,-8.8626,-8.8781,-8.8784,-8.8848,-8.8845,-8.9351,-8.8871,-8.887,-8.8869,-8.8868,0,-8.8698,-8.8839,-8.8708,-8.8796,-8.8947,-8.8831,-8.8985,-8.8953,-8.894,-8.9019,-8.888,-8.8957,-8.8833,-8.8899,-8.8829,-8.8967,-8.8979,-8.8951,-8.8931,-8.8963,-8.8967,-8.8981,-8.8956,-8.8881,-8.8879,-8.8876,-8.8874,0,-8.9117,-8.9035,-8.9179,-8.9128,-8.9118,-8.9233,-8.9188,-8.9267,-8.9213,-8.9315,-8.9332,-8.9249,-8.9318,-8.9232,-8.9294,-8.9247,-8.9435,-8.9382,-8.9437,-8.9422,-8.9581,-8.9567,-9.0113,-9.0178,-8.9658,-8.9663,-8.9667,0,-8.9367,-8.9471,-8.943,-8.9472,-8.9466,-8.9537,-8.9568,-8.9457,-8.9495,-8.9496,-8.9575,-8.9632,-8.9672,-8.9791,-8.9736,-8.9783,-8.973,-8.9918,-8.9736,-8.9765,-8.9731,-8.9726,-8.9735,-8.9955,-8.9961,-8.9966,-8.997,0,-8.982,-8.9774,-8.9824,-8.986,-8.9901,-8.9925,-8.9938,-8.9981,-8.9865,-8.9916,-8.9984,-9.0015,-9.0077,-9.0136,-9.0168,-9.0153,-9.0044,-9.0028,-9.0066,-9.01,-9.0127,-9.0113,-8.9537,-9.0016,-9.0011,-9.0008,-9.0006,-9.0004,-9.0161,-9.0244,-9.0228,-9.0289,-9.0287,-9.0302,-9.0373,-9.0328,-9.0383,-9.0424,-9.0356,-9.0442,-9.0432,-9.0463,-9.0462,-9.0528,-9.0447,-9.0502,-9.0516,-9.0531,-9.0555,-9.0117,-9.0533,-9.0532,-9.0531,-9.0529,-9.0528,0,-9.0604,-9.0586,-9.0642,-9.0664,-9.0712,-9.0603,-9.0612,-9.0659,-9.0737,-9.0736,-9.0778,-9.0857,-9.0913,-9.0863,-9.0909,-9.0972,-9.0922,-9.0987,-9.0981,-9.098,-9.0625,-9.0587,-9.1026,-9.1026,-9.1026,-9.1026,-9.1026,-9.1026,-9.0841,-9.0977,-9.0929,-9.1063,-9.1042,-9.1125,-9.1139,-9.1153,-9.1151,-9.1245,-9.1291,-9.1257,-9.1237,-9.128,-9.1327,-9.1311,-9.1334,-9.1417,-9.1384,-9.1054,-9.1005,-9.0958,-9.0921,-9.1423,-9.1424,-9.1731,-9.1734,-9.1736]},{"header":{"parameterUnit":"m.s-1","parameterCategory":1,"la1":30.2991,"la2":30.254,"lo1":-89.0895,"lo2":-89.0444,"dy":0.0017,"dx":0.0017,"nx":28,"ny":28,"refTime":"2024-09-03T21:00:00:Z","depth":0,"parameterNumber":3,"parameterNumberName":"V-component_of_WINDS"},"data":[0,0,0,0,0,0,0,0,0,0,0,0,0,0,0,0,0,0,0,0,0,0,0,0,0,0,0,0,0,0,0,0,0,0,0,0,0,0,0,0,0,0,0,0,0,0,0,0,0,0,0,0,0,0,0,0,0,0,-1.4669,-1.4669,0,-1.4679,-1.4679,-1.468,-1.4652,-1.4651,-1.4651,-1.465,-1.4663,-1.4665,-1.4666,0,0,0,0,0,0,0,0,0,0,0,0,0,-1.4626,-1.4627,-1.4669,-1.4669,-1.4669,-1.4679,-1.4679,-1.468,-1.4652,-1.4651,-1.465,-1.4649,-1.4663,-1.4664,-1.4666,0,0,0,0,0,0,0,0,0,0,0,0,0,-1.4641,-1.4627,-1.4669,-1.4657,-1.4656,-1.4679,-1.4679,-1.468,-1.4653,-1.4651,-1.465,-1.4649,-1.4663,-1.4664,-1.4666,-1.4703,0,0,-1.4671,-1.4672,0,0,0,0,0,0,0,0,-1.464,-1.4643,-1.4658,-1.4657,-1.4656,-1.4663,-1.4669,-1.4687,-1.4653,-1.4654,-1.465,-1.4648,-1.4665,-1.4666,-1.4671,-1.4703,-1.4704,-1.4672,-1.4673,-1.4673,-1.4674,0,0,0,0,0,0,0,-1.4639,-1.4642,-1.4673,-1.4658,-1.4657,-1.4651,-1.4652,-1.4673,-1.4666,-1.4654,-1.4652,-1.4653,-1.4664,-1.4669,-1.4671,-1.4704,-1.4671,-1.4673,-1.4674,-1.4675,-1.4765,-1.4766,0,0,0,0,0,0,-1.464,-1.4641,-1.4673,-1.4673,-1.4645,-1.4653,-1.4654,-1.4662,-1.4666,-1.4665,-1.4654,-1.4652,-1.4667,-1.4669,-1.4671,-1.4713,-1.4673,-1.4675,-1.4676,-1.4764,-1.4765,-1.4767,0,0,0,0,0,0,-1.4639,-1.4643,-1.4672,-1.4657,-1.466,-1.4655,-1.4665,-1.4663,-1.4669,-1.4666,-1.4665,-1.4661,-1.4666,-1.4669,-1.4694,-1.4714,-1.4676,-1.4677,-1.4762,-1.4764,-1.4766,-1.4799,0,0,0,0,0,0,-1.4638,-1.4642,-1.4656,-1.4657,-1.4661,-1.4695,-1.4666,-1.4664,-1.4671,-1.4668,-1.4673,-1.4672,-1.4665,-1.4692,-1.4696,-1.4715,-1.4679,-1.476,-1.4763,-1.4765,-1.4796,-1.4801,-1.4806,0,0,0,0,0,-1.4636,-1.4666,-1.4657,-1.4661,-1.4678,-1.4696,-1.4698,-1.4689,-1.4673,-1.4687,-1.4685,-1.4672,-1.4711,-1.4695,-1.4699,-1.4719,-1.4759,-1.4762,-1.4765,-1.4793,-1.48,-1.4806,0,0,0,0,0,0,-1.4669,-1.4666,-1.4656,-1.4687,-1.4692,-1.4691,-1.4709,-1.4697,-1.4707,-1.4704,-1.4693,-1.4694,-1.4721,-1.4723,-1.4705,-1.4754,-1.4732,-1.4736,-1.4752,-1.4759,-1.4764,-1.4763,-1.468,0,0,0,0,0,-1.468,-1.4694,-1.4691,-1.4719,-1.4721,-1.4715,-1.4722,-1.4714,-1.4719,-1.4721,-1.4721,-1.4727,-1.474,-1.475,-1.4762,-1.4795,-1.4796,-1.4811,-1.4816,-1.4821,-1.4825,-1.4841,-1.4848,-1.4777,-1.4777,-1.4777,0,0,-1.4703,-1.4703,-1.4713,-1.4725,-1.4728,-1.4743,-1.4717,-1.4734,-1.4745,-1.4724,-1.4748,-1.4748,-1.4753,-1.4783,-1.4796,-1.4785,-1.4844,-1.4825,-1.4828,-1.483,-1.4845,-1.4852,-1.4858,-1.4779,-1.4778,-1.4778,0,0,-1.4752,-1.4753,-1.4776,-1.4778,-1.4782,-1.4777,-1.4782,-1.4783,-1.4782,-1.4805,-1.4789,-1.4802,-1.4825,-1.4829,-1.4834,-1.4882,-1.487,-1.4886,-1.4914,-1.493,-1.4936,-1.4941,-1.4957,-1.4963,-1.489,-1.489,-1.489,0,-1.478,-1.4802,-1.4789,-1.4807,-1.4813,-1.4792,-1.4815,-1.4818,-1.4826,-1.483,-1.4818,-1.4845,-1.4848,-1.4877,-1.4888,-1.4893,-1.4898,-1.4886,-1.4936,-1.494,-1.4945,-1.496,-1.4966,-1.4892,-1.4892,-1.4891,-1.4891,0,-1.4835,-1.485,-1.4868,-1.4874,-1.4882,-1.4902,-1.4893,-1.4902,-1.4892,-1.4889,-1.4912,-1.4913,-1.4925,-1.4931,-1.4923,-1.4958,-1.4951,-1.4937,-1.4915,-1.4954,-1.4968,-1.4974,-1.4895,-1.4894,-1.4893,-1.4893,0,0,-1.4908,-1.4905,-1.4911,-1.4913,-1.4914,-1.4926,-1.4944,-1.4954,-1.4962,-1.4967,-1.4982,-1.5001,-1.4987,-1.4993,-1.4985,-1.4999,-1.5036,-1.4984,-1.4983,-1.4993,-1.5074,-1.5084,-1.5091,-1.5027,-1.5028,-1.5029,-1.5073,0,-1.4955,-1.4986,-1.4974,-1.5007,-1.502,-1.4999,-1.5015,-1.5018,-1.5014,-1.5025,-1.5021,-1.5034,-1.5015,-1.5018,-1.5031,-1.5029,-1.5052,-1.5025,-1.5041,-1.5042,-1.5041,-1.5099,-1.511,-1.5152,-1.5078,-1.5079,-1.508,0,-1.5016,-1.5022,-1.5054,-1.5051,-1.5056,-1.5071,-1.5078,-1.5088,-1.509,-1.5086,-1.5091,-1.508,-1.5097,-1.5075,-1.5099,-1.5081,-1.5086,-1.5086,-1.5087,-1.5089,-1.5064,-1.5102,-1.5165,-1.5171,-1.5089,-1.5088,-1.5087,0,-1.5064,-1.508,-1.5102,-1.5104,-1.5101,-1.5111,-1.5111,-1.5111,-1.5117,-1.5123,-1.5127,-1.5135,-1.514,-1.5147,-1.5138,-1.5122,-1.5163,-1.514,-1.516,-1.516,-1.517,-1.517,-1.5235,-1.5174,-1.5174,-1.5174,-1.5173,0,-1.5119,-1.514,-1.5123,-1.5136,-1.5158,-1.5144,-1.5167,-1.5164,-1.5164,-1.5176,-1.5159,-1.5171,-1.5158,-1.5169,-1.5162,-1.5182,-1.5185,-1.5182,-1.518,-1.5184,-1.5184,-1.5188,-1.5185,-1.5175,-1.5175,-1.5175,-1.5174,0,-1.5178,-1.5167,-1.5189,-1.5183,-1.5182,-1.5199,-1.5194,-1.5206,-1.52,-1.5215,-1.5218,-1.5209,-1.5221,-1.5212,-1.5223,-1.5218,-1.5245,-1.5239,-1.5244,-1.5243,-1.5264,-1.5262,-1.5334,-1.5342,-1.5275,-1.5276,-1.5277,0,-1.5213,-1.5228,-1.5224,-1.523,-1.523,-1.524,-1.5245,-1.5231,-1.5238,-1.5239,-1.5251,-1.526,-1.5267,-1.5286,-1.5281,-1.5289,-1.5283,-1.5308,-1.5285,-1.5287,-1.5283,-1.5282,-1.5284,-1.5313,-1.5314,-1.5314,-1.5315,0,-1.5278,-1.5271,-1.5279,-1.5284,-1.529,-1.5294,-1.5296,-1.5302,-1.5288,-1.5296,-1.5306,-1.5311,-1.5321,-1.5331,-1.5337,-1.5337,-1.5324,-1.5322,-1.5327,-1.5331,-1.5333,-1.5332,-1.5257,-1.5321,-1.532,-1.532,-1.5319,-1.5319,-1.5326,-1.5337,-1.5335,-1.5344,-1.5343,-1.5346,-1.5356,-1.535,-1.5358,-1.5365,-1.5356,-1.5368,-1.5368,-1.5375,-1.5376,-1.5385,-1.5375,-1.5383,-1.5385,-1.5387,-1.539,-1.5331,-1.5386,-1.5386,-1.5386,-1.5386,-1.5386,0,-1.5389,-1.5386,-1.5393,-1.5396,-1.5403,-1.5387,-1.5389,-1.5395,-1.5406,-1.5406,-1.5413,-1.5424,-1.5432,-1.5427,-1.5434,-1.5443,-1.5437,-1.5445,-1.5445,-1.5444,-1.5399,-1.5393,-1.545,-1.545,-1.545,-1.545,-1.545,-1.545,-1.5422,-1.5441,-1.5434,-1.5452,-1.5448,-1.546,-1.5461,-1.5463,-1.5463,-1.5476,-1.5482,-1.5478,-1.5475,-1.5482,-1.5488,-1.5487,-1.549,-1.5501,-1.5497,-1.5454,-1.5448,-1.5442,-1.5437,-1.5501,-1.5502,-1.5542,-1.5542,-1.5542]}]]